Location: Unspecified
(43.8044°N, 11.0278°E)
Time: 19:25:39
(UTC+01:00)

Cosmos 1674 - Visible Passes

Search period start: 26 January 2015 00:00
Search period end: 05 February 2015 00:00
Orbit: 511 x 535 km, 82.5° (Epoch: 25 January)

Date Brightness Start Highest point End Pass type
(mag) Time Alt. Az. Time Alt. Az. Time Alt. Az.
27 Jan 5.9 18:20:31 10° W 18:21:45 11° WNW 18:22:47 10° NW visible
28 Jan 5.8 18:07:15 10° W 18:09:03 12° WNW 18:10:40 10° NW visible
29 Jan 5.7 17:54:09 10° WSW 17:56:20 14° WNW 17:58:23 10° NW visible
